Regional Weather Roundup
Issued by NWS Jackson, KY

Home | Current Version | Previous Version | Graphics & Text | Print | Product List | Glossary On
Versions: 1 2 3 4 5 6 7 8 9 10 11 12 13 14 15 16 17 18 19 20 21 22 23 24 25 26 27 28 29 30 31 32 33 34 35 36 37 38 39 40 41 42 43 44 45 46 47 48 49 50
000
ASUS43 KJKL 270110
RWRJKL

EAST KENTUCKY HOURLY WEATHER ROUNDUP
NATIONAL WEATHER SERVICE JACKSON KY
900 PM EDT TUE MAY 26 2015

NOTE: "FAIR" INDICATES FEW OR NO CLOUDS BELOW 12,000 FEET WITH
NO SIGNIFICANT WEATHER AND/OR OBSTRUCTIONS TO VISIBILITY.

* THESE REPORTS ARE NOT UNDER NWS QUALITY CONTROL AND MAY NOT
  REPORT WEATHER SUCH AS PRECIPITATION AND FOG.

KYZ079-080-083-085-087-088-110-112-115-119-120-270200
...EASTERN KENTUCKY...

CITY           SKY/WX    TMP DP  RH WIND       PRES   REMARKS
JACKSON        CLOUDY    76  61  59 VRB3      30.10R
LONDON         LGT RAIN  69  63  81 SW8       30.13S
SOMERSET*      CLOUDY    66  66 100 CALM      30.12S
MONTICELLO*    CLOUDY    69  68  97 S7        30.13R
MIDDLESBORO*   CLOUDY    74  66  75 SW8G16    30.15R
HARLAN APT*    CLOUDY    66  66 100 NE7       30.15R
HAZARD APT*    MOCLDY    73  64  73 S8        30.11R
PIKEVILLE APT* LGT RAIN  73  64  73 SW3       30.11R
BIG SANDY*     LGT RAIN  78  66  67 S10       30.09R
MOREHEAD APT*  LGT RAIN  66  64  94 SW10      30.14R
$$

KYZ035-036-041-042-044-050-067-078-099-270200
...CENTRAL KENTUCKY...

CITY           SKY/WX    TMP DP  RH WIND       PRES   REMARKS
MT STERLING*   RAIN      64  64 100 SW7       30.12R
FLEMING/MASON* LGT RAIN  68  66  94 S9        30.09R
DANVILLE*      CLOUDY    64  63  94 S7        30.09F
RICHMOND*      CLOUDY    66  63  88 S7        30.10S
LEXINGTON      CLOUDY    67  65  93 S8        30.07F
FRANKFORT      CLOUDY    67  64  90 S7        30.04S
$$

KYZ091>093-OHZ055-061-077-WVZ005-015-034-035-042-270200
...SOUTHERN OHIO/WEST VIRGINIA...

CITY           SKY/WX    TMP DP  RH WIND       PRES   REMARKS
COVINGTON      LGT RAIN  71  68  90 S15       30.03R
COLUMBUS       TSTM      68  66  94 SW9       30.01S
DAYTON         CLOUDY    71  68  90 S12       29.99F
WILMINGTON     CLOUDY    69  66  90 SW13      30.02S
HUNTINGTON     MOCLDY    72  68  87 SE3       30.04S
CHARLESTON     MOCLDY    79  66  64 SE6       30.05S
PINEVILLE*     PTCLDY    69  69 100 MISG      30.18F FOG
BECKLEY        PTCLDY    72  62  71 SE8       30.18F
BLUEFIELD      PTCLDY    73  61  65 S12G20    30.22F
$$

VAZ002-007-008-TNZ017-027-036-066-071-270200
...SOUTHWEST VIRGINIA/EAST TENNESSEE...

CITY           SKY/WX    TMP DP  RH WIND       PRES   REMARKS
WISE*          CLOUDY    73  57  56 S8        30.21R
JONESVILLE*    CLOUDY    72  70  94 SW6       30.17R
ABINGDON*      CLOUDY    77  61  56 SW8       30.18S
BRISTOL        CLOUDY    78  63  59 S8        30.16R
KNOXVILLE      LGT RAIN  75  61  61 SW15      30.13
OAK RIDGE      LGT RAIN  72  69  90 W3        30.15R
CROSSVILLE     CLOUDY    69  65  86 VRB7      30.15S
NASHVILLE      MOCLDY    76  66  71 SW7       30.07R
$$

...KEY TO REMARKS...
VSB - VISIBILITY IN MILES
WCI - WIND CHILL INDEX
HX  - HEAT INDEX

$$


USA.gov is the U.S. government's official web portal to all federal, state and local government web resources and services.